QPF
0.00 0.00 0.00 0.00 0.00 0.00 0.00 0.00 0.00 0.00 0.00 0.00 0.00 0.00 0.00 0.00 0.00 0.00 0.00 0.00 0.00 0.00 0.00 0.00 0.00 0.01 0.02 0.02 0.01 0.01 0.00 0.00 0.00 0.00 0.00 0.00 0.00 0.00 0.00 0.00 0.00 0.00 0.00 0.00 0.00 0.00 0.00 0.00 0.00
0.00 0.00 0.00 0.00 0.00 0.00 0.00 0.00 0.00 0.00 0.00 0.00 0.00 0.00 0.00 0.00 0.00 0.00 0.00 0.00 0.00 0.00 0.00 0.00 0.00 0.01 0.01 0.02 0.01 0.01 0.01 0.01 0.00 0.00 0.00 0.00 0.00 0.00 0.00 0.00 0.01 0.00 0.00 0.00 0.00 0.00 0.00 0.00 0.00
0.00 0.00 0.00 0.00 0.00 0.00 0.00 0.00 0.00 0.00 0.00 0.00 0.00 0.00 0.00 0.00 0.00 0.00 0.00 0.00 0.00 0.00 0.00 0.00 0.00 0.00 0.01 0.01 0.01 0.01 0.01 0.00 0.00 0.00 0.00 0.00 0.00 0.01 0.01 0.01 0.01 0.01 0.00 0.00 0.00 0.00 0.00 0.00 0.00
0.00 0.00 0.00 0.00 0.00 0.00 0.00 0.00 0.00 0.00 0.00 0.00 0.00 0.00 0.00 0.00 0.00 0.00 0.00 0.00 0.00 0.00 0.00 0.00 0.00 0.01 0.01 0.01 0.01 0.01 0.00 0.00 0.00 0.00 0.00 0.00 0.00 0.01 0.01 0.01 0.01 0.01 0.00 0.00 0.00 0.00 0.00 0.00 0.00
0.00 0.00 0.00 0.00 0.00 0.00 0.00 0.00 0.00 0.00 0.00 0.00 0.00 0.00 0.00 0.00 0.00 0.00 0.00 0.00 0.00 0.00 0.00 0.00 0.00 0.01 0.01 0.01 0.00 0.00 0.00 0.00 0.00 0.00 0.00 0.00 0.01 0.01 0.01 0.01 0.01 0.01 0.01 0.00 0.00 0.00 0.00 0.00 0.00
0.00 0.00 0.00 0.00 0.00 0.00 0.00 0.00 0.00 0.00 0.00 0.00 0.00 0.00 0.00 0.00 0.00 0.00 0.00 0.00 0.00 0.00 0.00 0.00 0.00 0.00 0.01 0.01 0.00 0.00 0.00 0.00 0.00 0.00 0.00 0.01 0.01 0.01 0.01 0.01 0.01 0.01 0.01 0.00 0.00 0.00 0.00 0.00 0.00
0.00 0.00 0.00 0.00 0.00 0.00 0.00 0.00 0.00 0.00 0.00 0.00 0.00 0.00 0.00 0.00 0.00 0.00 0.00 0.00 0.00 0.00 0.00 0.00 0.00 0.00 0.01 0.01 0.01 0.01 0.01 0.01 0.01 0.01 0.01 0.01 0.01 0.01 0.01 0.01 0.00 0.00 0.00 0.00 0.00 0.00 0.00 0.00 0.00
0.00 0.00 0.00 0.00 0.00 0.00 0.00 0.00 0.00 0.00 0.00 0.00 0.00 0.00 0.00 0.00 0.00 0.00 0.00 0.00 0.00 0.00 0.00 0.00 0.00 0.00 0.00 0.00 0.01 0.01 0.02 0.01 0.01 0.01 0.01 0.00 0.00 0.00 0.00 0.00 0.00 0.00 0.00 0.00 0.00 0.00 0.00 0.00 0.00
0.00 0.00 0.00 0.00 0.00 0.01 0.01 0.01 0.00 0.00 0.00 0.00 0.00 0.00 0.00 0.00 0.00 0.00 0.00 0.00 0.00 0.00 0.00 0.00 0.01 0.01 0.01 0.00 0.00 0.01 0.01 0.01 0.01 0.00 0.00 0.00 0.00 0.00 0.00 0.00 0.00 0.00 0.00 0.00 0.00 0.00 0.00 0.00 0.00
0.00 0.00 0.00 0.00 0.00 0.00 0.00 0.00 0.00 0.00 0.00 0.00 0.00 0.00 0.00 0.00 0.00 0.00 0.00 0.00 0.00 0.00 0.00 0.00 0.00 0.01 0.01 0.01 0.01 0.01 0.01 0.00 0.00 0.01 0.00 0.00 0.00 0.00 0.00 0.00 0.00 0.00 0.00 0.00 0.01 0.01 0.00 0.00 0.00
0.00 0.00 0.00 0.00 0.00 0.00 0.00 0.00 0.00 0.00 0.00 0.00 0.00 0.00 0.00 0.00 0.00 0.00 0.00 0.00 0.00 0.00 0.00 0.00 0.00 0.00 0.01 0.01 0.02 0.02 0.02 0.01 0.01 0.01 0.00 0.01 0.00 0.00 0.00 0.00 0.00 0.00 0.00 0.01 0.01 0.01 0.01 0.01 0.00
0.00 0.00 0.00 0.00 0.00 0.00 0.00 0.00 0.00 0.00 0.00 0.00 0.00 0.00 0.00 0.00 0.00 0.00 0.00 0.00 0.00 0.00 0.00 0.00 0.00 0.00 0.00 0.01 0.02 0.02 0.02 0.01 0.01 0.01 0.00 0.00 0.00 0.00 0.00 0.00 0.00 0.00 0.02 0.03 0.02 0.02 0.01 0.01 0.00
0.00 0.00 0.00 0.00 0.00 0.00 0.00 0.00 0.00 0.00 0.00 0.00 0.00 0.00 0.00 0.00 0.00 0.00 0.00 0.00 0.00 0.00 0.00 0.00 0.00 0.00 0.01 0.01 0.01 0.01 0.01 0.01 0.01 0.01 0.00 0.00 0.00 0.00 0.00 0.00 0.00 0.01 0.03 0.04 0.03 0.02 0.01 0.01 0.00
0.00 0.00 0.00 0.00 0.00 0.00 0.00 0.00 0.00 0.00 0.00 0.00 0.00 0.00 0.00 0.00 0.00 0.00 0.00 0.00 0.00 0.00 0.00 0.00 0.00 0.00 0.01 0.01 0.01 0.01 0.01 0.01 0.01 0.00 0.00 0.00 0.00 0.01 0.01 0.01 0.01 0.03 0.04 0.05 0.04 0.04 0.02 0.01 0.01
0.00 0.00 0.00 0.00 0.00 0.00 0.00 0.00 0.00 0.00 0.00 0.00 0.00 0.00 0.00 0.00 0.00 0.00 0.00 0.00 0.00 0.00 0.00 0.00 0.00 0.00 0.01 0.01 0.01 0.01 0.01 0.01 0.01 0.01 0.01 0.00 0.01 0.01 0.02 0.02 0.03 0.04 0.05 0.04 0.04 0.04 0.03 0.02 0.01
0.00 0.00 0.00 0.00 0.00 0.00 0.00 0.00 0.00 0.00 0.00 0.00 0.00 0.00 0.00 0.00 0.00 0.00 0.00 0.00 0.00 0.00 0.00 0.00 0.00 0.00 0.01 0.01 0.01 0.02 0.01 0.01 0.01 0.01 0.01 0.01 0.01 0.02 0.03 0.04 0.05 0.06 0.06 0.06 0.05 0.04 0.04 0.03 0.03
0.00 0.00 0.00 0.00 0.00 0.00 0.00 0.00 0.00 0.00 0.00 0.00 0.00 0.00 0.00 0.00 0.00 0.00 0.00 0.01 0.01 0.01 0.01 0.01 0.00 0.00 0.01 0.01 0.01 0.01 0.01 0.01 0.01 0.01 0.02 0.03 0.03 0.04 0.07 0.08 0.08 0.09 0.10 0.10 0.09 0.08 0.06 0.06 0.06
0.00 0.00 0.00 0.00 0.00 0.00 0.00 0.00 0.00 0.00 0.00 0.00 0.00 0.00 0.00 0.00 0.00 0.01 0.01 0.01 0.01 0.01 0.02 0.02 0.01 0.01 0.02 0.02 0.02 0.01 0.01 0.01 0.02 0.04 0.06 0.07 0.08 0.11 0.14 0.15 0.15 0.17 0.17 0.15 0.14 0.13 0.12 0.10 0.10
0.00 0.00 0.00 0.00 0.00 0.00 0.00 0.00 0.00 0.00 0.00 0.00 0.00 0.00 0.00 0.00 0.01 0.01 0.01 0.01 0.01 0.02 0.03 0.03 0.01 0.02 0.03 0.03 0.03 0.03 0.03 0.05 0.05 0.08 0.11 0.15 0.21 0.23 0.24 0.22 0.22 0.24 0.26 0.27 0.27 0.21 0.17 0.14 0.12
0.00 0.00 0.00 0.00 0.00 0.00 0.00 0.00 0.00 0.00 0.00 0.00 0.00 0.00 0.00 0.00 0.00 0.01 0.02 0.01 0.01 0.02 0.03 0.02 0.02 0.02 0.04 0.05 0.06 0.08 0.11 0.13 0.13 0.14 0.19 0.24 0.29 0.31 0.32 0.31 0.32 0.33 0.31 0.29 0.27 0.24 0.20 0.18 0.15
0.00 0.00 0.00 0.00 0.00 0.00 0.00 0.00 0.00 0.00 0.00 0.00 0.00 0.00 0.00 0.01 0.01 0.01 0.01 0.01 0.02 0.03 0.03 0.03 0.02 0.03 0.06 0.10 0.13 0.17 0.19 0.22 0.25 0.27 0.31 0.34 0.35 0.36 0.38 0.38 0.37 0.37 0.35 0.33 0.28 0.23 0.21 0.20 0.18
0.00 0.00 0.00 0.00 0.00 0.00 0.00 0.01 0.01 0.01 0.01 0.01 0.01 0.01 0.01 0.01 0.01 0.01 0.01 0.02 0.03 0.03 0.03 0.04 0.04 0.05 0.09 0.14 0.16 0.22 0.28 0.32 0.38 0.41 0.40 0.38 0.37 0.39 0.41 0.43 0.48 0.47 0.38 0.31 0.24 0.20 0.18 0.17 0.15
0.00 0.00 0.00 0.00 0.00 0.00 0.00 0.01 0.02 0.01 0.01 0.02 0.02 0.02 0.02 0.02 0.02 0.02 0.02 0.02 0.03 0.03 0.04 0.04 0.04 0.05 0.06 0.10 0.16 0.22 0.30 0.38 0.46 0.49 0.47 0.46 0.50 0.51 0.44 0.41 0.39 0.32 0.23 0.16 0.13 0.11 0.10 0.09 0.08
0.00 0.00 0.00 0.00 0.00 0.00 0.00 0.01 0.03 0.03 0.02 0.03 0.03 0.03 0.03 0.03 0.03 0.03 0.03 0.03 0.03 0.04 0.05 0.06 0.07 0.08 0.09 0.14 0.18 0.26 0.34 0.43 0.49 0.49 0.49 0.53 0.53 0.44 0.33 0.26 0.19 0.15 0.12 0.09 0.07 0.06 0.05 0.05 0.06
0.00 0.00 0.00 0.00 0.00 0.01 0.01 0.02 0.04 0.04 0.03 0.03 0.03 0.04 0.04 0.04 0.04 0.04 0.04 0.04 0.05 0.05 0.07 0.09 0.11 0.12 0.14 0.17 0.24 0.32 0.38 0.46 0.49 0.47 0.46 0.43 0.35 0.28 0.22 0.18 0.15 0.13 0.10 0.07 0.05 0.04 0.03 0.03 0.02
0.00 0.00 0.00 0.00 0.00 0.01 0.02 0.03 0.05 0.04 0.02 0.03 0.03 0.03 0.04 0.05 0.05 0.05 0.05 0.06 0.06 0.06 0.09 0.10 0.14 0.17 0.18 0.21 0.26 0.33 0.35 0.36 0.36 0.36 0.36 0.33 0.27 0.24 0.19 0.15 0.12 0.11 0.09 0.08 0.06 0.04 0.03 0.02 0.02
0.00 0.00 0.00 0.00 0.00 0.02 0.03 0.04 0.05 0.04 0.03 0.02 0.02 0.02 0.03 0.04 0.04 0.03 0.04 0.04 0.04 0.05 0.06 0.07 0.09 0.13 0.16 0.20 0.20 0.20 0.20 0.20 0.21 0.21 0.20 0.18 0.16 0.14 0.13 0.13 0.11 0.09 0.08 0.06 0.05 0.04 0.03 0.02 0.02
0.00 0.00 0.00 0.00 0.00 0.02 0.03 0.04 0.04 0.04 0.03 0.02 0.02 0.02 0.03 0.03 0.02 0.02 0.02 0.03 0.03 0.03 0.04 0.05 0.06 0.08 0.09 0.13 0.14 0.13 0.13 0.13 0.13 0.12 0.13 0.13 0.14 0.14 0.13 0.11 0.09 0.07 0.05 0.04 0.03 0.03 0.02 0.01 0.01
0.00 0.00 0.00 0.00 0.00 0.01 0.03 0.05 0.04 0.05 0.04 0.02 0.01 0.01 0.01 0.01 0.01 0.01 0.01 0.01 0.01 0.01 0.02 0.03 0.04 0.04 0.05 0.05 0.06 0.06 0.07 0.07 0.08 0.09 0.10 0.11 0.10 0.10 0.10 0.09 0.08 0.07 0.06 0.05 0.04 0.03 0.02 0.01 0.01
0.00 0.00 0.00 0.00 0.00 0.00 0.02 0.04 0.03 0.05 0.04 0.02 0.01 0.01 0.01 0.01 0.01 0.01 0.01 0.01 0.01 0.01 0.02 0.02 0.02 0.02 0.03 0.03 0.04 0.04 0.04 0.05 0.06 0.06 0.06 0.06 0.06 0.06 0.06 0.06 0.06 0.06 0.06 0.05 0.04 0.04 0.03 0.02 0.02
MSLP
1011.60 1011.84 1012.16 1012.48 1012.70 1012.77 1012.67 1012.41 1012.06 1011.70 1011.40 1011.22 1011.15 1011.18 1011.24 1011.28 1011.25 1011.15 1011.02 1010.91 1010.90 1011.06 1011.41 1011.95 1012.61 1013.32 1013.97 1014.51 1014.89 1015.14 1015.30 1015.45 1015.66 1015.97 1016.37 1016.85 1017.33 1017.74 1018.04 1018.19 1018.22 1018.17 1018.11 1018.08 1018.14 1018.28 1018.48 1018.69 1018.86
1011.67 1011.97 1012.33 1012.65 1012.85 1012.86 1012.68 1012.33 1011.89 1011.43 1011.04 1010.77 1010.63 1010.61 1010.66 1010.72 1010.74 1010.71 1010.67 1010.67 1010.77 1011.02 1011.45 1012.04 1012.75 1013.48 1014.15 1014.70 1015.10 1015.38 1015.57 1015.74 1015.97 1016.29 1016.70 1017.15 1017.60 1017.97 1018.23 1018.34 1018.35 1018.29 1018.24 1018.25 1018.36 1018.54 1018.78 1019.01 1019.17
1011.82 1012.15 1012.51 1012.80 1012.95 1012.89 1012.64 1012.21 1011.69 1011.16 1010.71 1010.39 1010.22 1010.18 1010.23 1010.31 1010.38 1010.42 1010.47 1010.55 1010.74 1011.07 1011.56 1012.21 1012.94 1013.70 1014.39 1014.96 1015.39 1015.69 1015.91 1016.12 1016.37 1016.69 1017.08 1017.50 1017.90 1018.22 1018.43 1018.51 1018.50 1018.46 1018.44 1018.49 1018.64 1018.86 1019.12 1019.35 1019.49
1012.01 1012.34 1012.67 1012.90 1012.98 1012.85 1012.53 1012.04 1011.48 1010.92 1010.45 1010.12 1009.94 1009.92 1009.99 1010.10 1010.22 1010.33 1010.44 1010.60 1010.85 1011.24 1011.78 1012.45 1013.20 1013.97 1014.67 1015.26 1015.71 1016.04 1016.30 1016.53 1016.79 1017.11 1017.47 1017.85 1018.20 1018.47 1018.64 1018.70 1018.70 1018.68 1018.69 1018.79 1018.98 1019.23 1019.50 1019.72 1019.83
1012.19 1012.49 1012.76 1012.92 1012.92 1012.73 1012.35 1011.84 1011.26 1010.71 1010.26 1009.96 1009.82 1009.82 1009.93 1010.09 1010.26 1010.42 1010.59 1010.81 1011.10 1011.52 1012.08 1012.75 1013.50 1014.26 1014.96 1015.56 1016.03 1016.39 1016.67 1016.92 1017.19 1017.49 1017.83 1018.17 1018.47 1018.71 1018.85 1018.91 1018.92 1018.93 1018.99 1019.13 1019.35 1019.61 1019.88 1020.07 1020.14
1012.34 1012.58 1012.77 1012.85 1012.77 1012.53 1012.12 1011.60 1011.05 1010.54 1010.13 1009.88 1009.80 1009.85 1010.01 1010.21 1010.43 1010.64 1010.86 1011.11 1011.43 1011.86 1012.41 1013.07 1013.79 1014.53 1015.21 1015.80 1016.27 1016.64 1016.94 1017.21 1017.48 1017.77 1018.09 1018.40 1018.67 1018.89 1019.02 1019.09 1019.13 1019.17 1019.27 1019.44 1019.67 1019.93 1020.17 1020.32 1020.35
1012.42 1012.59 1012.69 1012.69 1012.55 1012.26 1011.84 1011.35 1010.84 1010.38 1010.04 1009.86 1009.82 1009.93 1010.12 1010.37 1010.63 1010.88 1011.13 1011.40 1011.74 1012.16 1012.69 1013.32 1014.00 1014.69 1015.34 1015.90 1016.37 1016.75 1017.06 1017.33 1017.61 1017.90 1018.20 1018.50 1018.76 1018.97 1019.11 1019.20 1019.26 1019.34 1019.47 1019.65 1019.88 1020.11 1020.31 1020.41 1020.40
1012.42 1012.52 1012.55 1012.47 1012.28 1011.97 1011.57 1011.11 1010.65 1010.25 1009.97 1009.83 1009.83 1009.97 1010.19 1010.47 1010.75 1011.03 1011.30 1011.60 1011.94 1012.36 1012.86 1013.44 1014.07 1014.71 1015.31 1015.84 1016.30 1016.67 1016.99 1017.28 1017.56 1017.86 1018.16 1018.45 1018.71 1018.92 1019.08 1019.19 1019.29 1019.39 1019.53 1019.70 1019.91 1020.10 1020.25 1020.30 1020.24
1012.38 1012.41 1012.37 1012.24 1012.02 1011.71 1011.32 1010.90 1010.48 1010.13 1009.88 1009.76 1009.78 1009.92 1010.15 1010.42 1010.72 1011.02 1011.32 1011.63 1011.98 1012.39 1012.86 1013.40 1013.98 1014.57 1015.12 1015.63 1016.06 1016.43 1016.76 1017.06 1017.36 1017.67 1017.98 1018.28 1018.55 1018.77 1018.95 1019.08 1019.20 1019.31 1019.44 1019.60 1019.77 1019.91 1020.00 1020.00 1019.90
1012.30 1012.28 1012.20 1012.05 1011.81 1011.51 1011.14 1010.75 1010.36 1010.02 1009.77 1009.64 1009.64 1009.75 1009.95 1010.21 1010.51 1010.82 1011.14 1011.48 1011.84 1012.26 1012.72 1013.23 1013.77 1014.31 1014.82 1015.29 1015.71 1016.09 1016.42 1016.74 1017.06 1017.38 1017.71 1018.02 1018.30 1018.54 1018.73 1018.88 1019.01 1019.12 1019.24 1019.37 1019.49 1019.57 1019.60 1019.56 1019.43
1012.24 1012.19 1012.08 1011.91 1011.68 1011.38 1011.03 1010.65 1010.26 1009.91 1009.63 1009.46 1009.40 1009.45 1009.61 1009.84 1010.13 1010.46 1010.81 1011.18 1011.58 1012.01 1012.47 1012.97 1013.48 1013.99 1014.48 1014.93 1015.34 1015.71 1016.06 1016.40 1016.73 1017.08 1017.42 1017.74 1018.04 1018.29 1018.49 1018.65 1018.78 1018.89 1019.00 1019.09 1019.16 1019.19 1019.17 1019.08 1018.92
1012.21 1012.13 1012.00 1011.83 1011.59 1011.30 1010.96 1010.57 1010.17 1009.78 1009.45 1009.20 1009.07 1009.05 1009.15 1009.36 1009.65 1009.99 1010.38 1010.80 1011.24 1011.71 1012.20 1012.70 1013.21 1013.70 1014.17 1014.61 1015.01 1015.39 1015.75 1016.11 1016.46 1016.81 1017.17 1017.50 1017.80 1018.06 1018.27 1018.43 1018.57 1018.67 1018.76 1018.83 1018.86 1018.86 1018.79 1018.67 1018.49
1012.20 1012.10 1011.96 1011.77 1011.53 1011.23 1010.88 1010.48 1010.04 1009.60 1009.20 1008.88 1008.66 1008.58 1008.64 1008.82 1009.12 1009.50 1009.94 1010.42 1010.93 1011.45 1011.98 1012.50 1013.01 1013.51 1013.97 1014.40 1014.81 1015.19 1015.56 1015.92 1016.29 1016.65 1017.00 1017.33 1017.63 1017.89 1018.10 1018.27 1018.41 1018.52 1018.60 1018.65 1018.67 1018.64 1018.55 1018.41 1018.23
1012.21 1012.08 1011.91 1011.69 1011.44 1011.12 1010.75 1010.31 1009.83 1009.34 1008.88 1008.49 1008.22 1008.10 1008.13 1008.31 1008.63 1009.06 1009.56 1010.12 1010.69 1011.28 1011.85 1012.41 1012.93 1013.43 1013.90 1014.33 1014.74 1015.13 1015.50 1015.87 1016.23 1016.58 1016.93 1017.25 1017.54 1017.79 1018.01 1018.18 1018.33 1018.44 1018.53 1018.60 1018.62 1018.58 1018.50 1018.35 1018.17
1012.20 1012.03 1011.82 1011.57 1011.28 1010.94 1010.53 1010.07 1009.55 1009.02 1008.51 1008.09 1007.79 1007.65 1007.68 1007.88 1008.24 1008.73 1009.30 1009.92 1010.57 1011.20 1011.82 1012.40 1012.95 1013.46 1013.93 1014.36 1014.77 1015.16 1015.53 1015.90 1016.25 1016.59 1016.92 1017.23 1017.50 1017.75 1017.96 1018.15 1018.31 1018.45 1018.56 1018.64 1018.68 1018.67 1018.60 1018.47 1018.30
1012.17 1011.94 1011.68 1011.39 1011.07 1010.69 1010.26 1009.76 1009.22 1008.67 1008.16 1007.72 1007.43 1007.30 1007.35 1007.60 1008.00 1008.54 1009.17 1009.85 1010.54 1011.21 1011.85 1012.45 1013.01 1013.52 1013.99 1014.42 1014.84 1015.23 1015.60 1015.96 1016.30 1016.63 1016.94 1017.23 1017.49 1017.73 1017.95 1018.14 1018.33 1018.49 1018.64 1018.76 1018.83 1018.86 1018.82 1018.72 1018.58
1012.09 1011.81 1011.51 1011.18 1010.83 1010.43 1009.98 1009.48 1008.94 1008.40 1007.90 1007.49 1007.23 1007.13 1007.23 1007.51 1007.95 1008.53 1009.18 1009.88 1010.58 1011.26 1011.90 1012.49 1013.03 1013.53 1014.00 1014.44 1014.86 1015.26 1015.63 1016.00 1016.34 1016.66 1016.95 1017.23 1017.48 1017.72 1017.94 1018.16 1018.36 1018.56 1018.75 1018.90 1019.02 1019.09 1019.09 1019.03 1018.93
1011.96 1011.66 1011.33 1011.00 1010.64 1010.25 1009.81 1009.33 1008.82 1008.32 1007.86 1007.50 1007.28 1007.23 1007.36 1007.66 1008.12 1008.69 1009.34 1010.01 1010.67 1011.31 1011.91 1012.47 1012.98 1013.47 1013.93 1014.37 1014.80 1015.21 1015.60 1015.98 1016.33 1016.65 1016.95 1017.23 1017.48 1017.73 1017.96 1018.20 1018.43 1018.66 1018.88 1019.07 1019.23 1019.33 1019.38 1019.37 1019.30
1011.81 1011.51 1011.20 1010.89 1010.57 1010.22 1009.83 1009.41 1008.97 1008.53 1008.15 1007.85 1007.68 1007.66 1007.81 1008.11 1008.54 1009.06 1009.64 1010.23 1010.81 1011.37 1011.89 1012.38 1012.84 1013.30 1013.75 1014.20 1014.65 1015.09 1015.52 1015.92 1016.30 1016.65 1016.96 1017.25 1017.52 1017.78 1018.03 1018.29 1018.54 1018.80 1019.04 1019.26 1019.45 1019.59 1019.67 1019.69 1019.67
1011.64 1011.39 1011.15 1010.91 1010.67 1010.41 1010.12 1009.79 1009.45 1009.11 1008.80 1008.58 1008.45 1008.46 1008.60 1008.86 1009.22 1009.65 1010.11 1010.57 1011.03 1011.46 1011.87 1012.27 1012.68 1013.10 1013.54 1014.00 1014.48 1014.96 1015.44 1015.89 1016.31 1016.69 1017.04 1017.35 1017.65 1017.93 1018.20 1018.48 1018.75 1019.02 1019.28 1019.52 1019.72 1019.88 1019.98 1020.03 1020.04
1011.46 1011.29 1011.16 1011.04 1010.92 1010.80 1010.65 1010.46 1010.25 1010.03 1009.83 1009.67 1009.60 1009.61 1009.72 1009.91 1010.17 1010.46 1010.77 1011.08 1011.37 1011.66 1011.94 1012.24 1012.58 1012.96 1013.40 1013.88 1014.39 1014.93 1015.46 1015.97 1016.44 1016.87 1017.25 1017.60 1017.92 1018.23 1018.52 1018.81 1019.10 1019.37 1019.64 1019.87 1020.07 1020.23 1020.34 1020.40 1020.43
1011.25 1011.20 1011.19 1011.22 1011.27 1011.31 1011.33 1011.31 1011.26 1011.18 1011.10 1011.03 1011.00 1011.02 1011.09 1011.20 1011.34 1011.50 1011.64 1011.78 1011.91 1012.04 1012.20 1012.41 1012.68 1013.03 1013.46 1013.96 1014.52 1015.10 1015.69 1016.25 1016.77 1017.25 1017.67 1018.05 1018.40 1018.72 1019.02 1019.32 1019.60 1019.88 1020.13 1020.35 1020.53 1020.68 1020.77 1020.83 1020.87
1011.00 1011.05 1011.17 1011.36 1011.57 1011.80 1012.01 1012.19 1012.31 1012.40 1012.45 1012.48 1012.51 1012.54 1012.58 1012.63 1012.67 1012.69 1012.70 1012.69 1012.68 1012.68 1012.73 1012.86 1013.08 1013.40 1013.83 1014.35 1014.94 1015.57 1016.20 1016.80 1017.36 1017.87 1018.31 1018.71 1019.06 1019.38 1019.69 1019.98 1020.26 1020.51 1020.75 1020.94 1021.10 1021.21 1021.29 1021.33 1021.35
1010.67 1010.80 1011.03 1011.35 1011.72 1012.12 1012.52 1012.89 1013.20 1013.46 1013.66 1013.81 1013.92 1014.00 1014.05 1014.07 1014.05 1013.99 1013.90 1013.78 1013.67 1013.59 1013.57 1013.64 1013.82 1014.13 1014.56 1015.09 1015.70 1016.35 1017.00 1017.62 1018.20 1018.71 1019.15 1019.54 1019.88 1020.19 1020.48 1020.75 1021.01 1021.24 1021.44 1021.61 1021.74 1021.82 1021.86 1021.87 1021.87
1010.28 1010.44 1010.73 1011.13 1011.63 1012.17 1012.73 1013.27 1013.77 1014.20 1014.56 1014.86 1015.08 1015.24 1015.34 1015.38 1015.36 1015.28 1015.15 1015.00 1014.85 1014.73 1014.68 1014.73 1014.90 1015.21 1015.63 1016.16 1016.77 1017.42 1018.06 1018.67 1019.22 1019.71 1020.12 1020.47 1020.78 1021.06 1021.31 1021.55 1021.78 1021.99 1022.16 1022.30 1022.39 1022.44 1022.45 1022.43 1022.39
1009.85 1009.98 1010.27 1010.71 1011.26 1011.90 1012.59 1013.27 1013.93 1014.53 1015.06 1015.50 1015.87 1016.15 1016.35 1016.46 1016.50 1016.46 1016.37 1016.25 1016.12 1016.02 1015.98 1016.04 1016.22 1016.52 1016.94 1017.47 1018.05 1018.67 1019.28 1019.84 1020.35 1020.78 1021.13 1021.43 1021.69 1021.91 1022.12 1022.33 1022.52 1022.69 1022.84 1022.95 1023.01 1023.03 1023.00 1022.94 1022.87
1009.43 1009.50 1009.73 1010.14 1010.71 1011.39 1012.14 1012.93 1013.72 1014.46 1015.14 1015.75 1016.26 1016.69 1017.02 1017.26 1017.41 1017.48 1017.48 1017.43 1017.37 1017.34 1017.35 1017.44 1017.64 1017.95 1018.36 1018.86 1019.41 1019.98 1020.53 1021.03 1021.46 1021.82 1022.11 1022.34 1022.53 1022.70 1022.86 1023.02 1023.17 1023.31 1023.43 1023.52 1023.55 1023.54 1023.49 1023.40 1023.28
1009.12 1009.09 1009.24 1009.58 1010.10 1010.77 1011.55 1012.39 1013.26 1014.12 1014.93 1015.67 1016.34 1016.92 1017.40 1017.78 1018.07 1018.27 1018.40 1018.47 1018.52 1018.57 1018.65 1018.80 1019.02 1019.34 1019.74 1020.20 1020.70 1021.21 1021.69 1022.12 1022.47 1022.75 1022.97 1023.13 1023.26 1023.37 1023.48 1023.60 1023.72 1023.83 1023.93 1023.99 1024.01 1023.98 1023.90 1023.78 1023.63
1009.00 1008.87 1008.93 1009.19 1009.63 1010.25 1011.01 1011.87 1012.78 1013.70 1014.60 1015.45 1016.24 1016.95 1017.57 1018.09 1018.52 1018.86 1019.12 1019.32 1019.48 1019.62 1019.78 1019.97 1020.23 1020.55 1020.93 1021.36 1021.81 1022.26 1022.67 1023.03 1023.31 1023.53 1023.68 1023.78 1023.85 1023.92 1023.99 1024.08 1024.17 1024.26 1024.34 1024.38 1024.38 1024.33 1024.23 1024.09 1023.91
1009.13 1008.94 1008.93 1009.10 1009.47 1010.03 1010.74 1011.57 1012.48 1013.42 1014.37 1015.29 1016.16 1016.96 1017.68 1018.31 1018.85 1019.31 1019.68 1019.98 1020.24 1020.46 1020.68 1020.92 1021.20 1021.52 1021.89 1022.28 1022.69 1023.08 1023.43 1023.73 1023.96 1024.13 1024.23 1024.30 1024.34 1024.37 1024.42 1024.48 1024.55 1024.63 1024.69 1024.72 1024.70 1024.63 1024.51 1024.35 1024.14
Thickness
5786 5793 5799 5797 5790 5788 5787 5792 5801 5802 5805 5814 5817 5813 5810 5808 5802 5794 5811 5821 5817 5812 5802 5790 5786 5783 5781 5779 5776 5774 5771 5768 5765 5762 5759 5756 5754 5753 5751 5750 5749 5748 5746 5745 5744 5743 5742 5741 5740
5787 5792 5791 5789 5779 5774 5780 5794 5796 5799 5807 5816 5817 5813 5809 5810 5812 5808 5811 5814 5812 5807 5798 5790 5782 5779 5777 5775 5773 5771 5768 5765 5762 5759 5756 5753 5751 5749 5748 5747 5745 5744 5743 5742 5740 5739 5738 5737 5736
5785 5787 5782 5779 5774 5776 5779 5793 5797 5806 5814 5813 5812 5815 5811 5807 5809 5808 5811 5810 5807 5801 5795 5786 5778 5775 5773 5772 5769 5767 5764 5762 5759 5756 5753 5750 5748 5746 5745 5743 5742 5741 5739 5738 5737 5735 5734 5733 5732
5780 5778 5775 5767 5769 5787 5791 5795 5799 5802 5809 5813 5811 5808 5813 5812 5812 5813 5811 5808 5804 5797 5791 5782 5775 5771 5769 5767 5766 5764 5761 5758 5755 5752 5749 5747 5744 5743 5742 5741 5739 5738 5736 5735 5733 5732 5731 5729 5728
5776 5769 5760 5761 5772 5789 5794 5797 5799 5798 5801 5807 5807 5805 5806 5810 5816 5813 5808 5805 5800 5795 5788 5778 5770 5767 5765 5763 5762 5760 5758 5755 5753 5750 5747 5744 5742 5740 5740 5739 5737 5735 5734 5732 5731 5729 5728 5727 5726
5762 5763 5752 5757 5772 5786 5792 5795 5795 5796 5802 5808 5806 5804 5803 5810 5809 5808 5806 5802 5798 5792 5786 5774 5765 5763 5761 5760 5758 5756 5754 5752 5749 5747 5744 5742 5740 5738 5737 5736 5735 5734 5732 5730 5729 5727 5725 5724 5723
5755 5755 5755 5764 5772 5780 5786 5792 5790 5793 5797 5804 5809 5802 5802 5806 5807 5807 5804 5800 5796 5790 5784 5773 5766 5760 5757 5756 5755 5753 5751 5749 5747 5744 5742 5740 5738 5736 5735 5734 5733 5732 5731 5729 5727 5725 5724 5722 5721
5757 5754 5753 5762 5766 5774 5788 5787 5790 5791 5795 5809 5810 5801 5800 5802 5805 5804 5801 5796 5792 5787 5781 5774 5768 5763 5758 5755 5751 5750 5748 5746 5744 5742 5740 5737 5736 5734 5733 5733 5732 5731 5729 5728 5726 5724 5722 5721 5720
5746 5737 5748 5760 5764 5773 5783 5777 5787 5796 5797 5804 5810 5808 5810 5808 5805 5798 5793 5789 5785 5782 5779 5774 5769 5765 5762 5758 5751 5748 5745 5743 5741 5740 5737 5736 5738 5738 5735 5734 5731 5729 5728 5727 5725 5723 5721 5720 5719
5733 5733 5750 5765 5770 5771 5775 5773 5780 5783 5787 5796 5803 5805 5807 5804 5800 5794 5789 5784 5781 5778 5777 5775 5772 5767 5764 5761 5753 5750 5747 5744 5743 5743 5740 5740 5741 5740 5739 5733 5730 5728 5727 5726 5724 5722 5721 5721 5724
5730 5732 5748 5753 5757 5761 5764 5768 5776 5774 5777 5793 5798 5801 5801 5799 5798 5796 5792 5788 5785 5780 5776 5777 5772 5768 5766 5762 5756 5754 5752 5747 5746 5745 5742 5741 5740 5739 5738 5735 5731 5729 5728 5729 5726 5725 5727 5727 5726
5721 5729 5736 5742 5751 5751 5756 5763 5768 5773 5783 5802 5806 5806 5801 5798 5800 5799 5795 5791 5787 5781 5777 5777 5772 5768 5766 5763 5759 5755 5754 5750 5749 5744 5742 5741 5740 5739 5739 5736 5737 5734 5732 5731 5730 5729 5727 5725 5723
5712 5722 5729 5737 5743 5749 5753 5757 5763 5773 5791 5800 5804 5804 5802 5802 5802 5803 5801 5795 5789 5782 5777 5775 5771 5766 5762 5760 5758 5756 5754 5752 5748 5744 5741 5740 5740 5739 5737 5735 5732 5733 5733 5730 5727 5727 5725 5723 5722
5715 5720 5727 5736 5743 5748 5747 5755 5761 5772 5788 5793 5797 5800 5803 5803 5803 5801 5796 5791 5786 5781 5776 5774 5768 5764 5759 5756 5754 5754 5753 5749 5749 5744 5742 5739 5739 5737 5735 5732 5729 5729 5728 5728 5726 5725 5722 5721 5722
5711 5711 5722 5734 5741 5747 5747 5746 5760 5777 5785 5786 5792 5797 5799 5802 5801 5797 5794 5789 5785 5779 5774 5770 5765 5762 5756 5754 5752 5752 5750 5748 5747 5744 5740 5737 5736 5734 5731 5731 5728 5727 5725 5722 5721 5720 5719 5717 5716
5705 5706 5712 5732 5739 5745 5739 5743 5765 5779 5780 5781 5787 5790 5792 5794 5797 5795 5792 5787 5784 5778 5772 5767 5765 5760 5754 5752 5750 5750 5749 5746 5744 5741 5738 5734 5732 5730 5727 5727 5726 5722 5720 5718 5717 5716 5716 5714 5712
5697 5702 5711 5722 5735 5741 5739 5745 5760 5773 5776 5775 5779 5783 5785 5785 5789 5789 5788 5783 5780 5775 5770 5765 5762 5759 5754 5750 5748 5747 5744 5742 5740 5738 5736 5732 5729 5726 5723 5722 5720 5717 5715 5712 5711 5710 5709 5706 5704
5693 5701 5704 5714 5727 5734 5734 5739 5751 5762 5768 5771 5774 5777 5777 5778 5778 5781 5781 5779 5776 5772 5767 5763 5760 5757 5753 5749 5745 5742 5741 5739 5736 5735 5731 5728 5724 5720 5718 5716 5713 5710 5708 5705 5702 5700 5699 5698 5695
5691 5694 5699 5710 5724 5726 5726 5731 5739 5749 5756 5760 5763 5767 5768 5768 5772 5774 5773 5773 5770 5766 5763 5760 5757 5754 5751 5747 5743 5739 5736 5734 5731 5728 5724 5721 5718 5715 5711 5711 5708 5704 5701 5698 5694 5692 5690 5689 5687
5684 5687 5696 5708 5718 5719 5720 5722 5730 5736 5740 5745 5749 5753 5755 5757 5759 5761 5763 5764 5763 5760 5758 5756 5753 5751 5748 5745 5741 5738 5734 5730 5726 5721 5717 5714 5711 5708 5705 5702 5700 5695 5691 5688 5684 5681 5681 5678 5676
5680 5685 5695 5701 5711 5718 5718 5713 5718 5724 5730 5733 5738 5742 5743 5744 5746 5748 5750 5753 5754 5753 5752 5751 5749 5748 5744 5741 5738 5733 5726 5721 5716 5711 5708 5704 5701 5697 5694 5691 5689 5686 5682 5678 5676 5674 5672 5670 5667
5677 5693 5695 5697 5702 5711 5716 5708 5708 5712 5712 5713 5717 5722 5725 5729 5733 5735 5737 5739 5741 5743 5745 5743 5742 5740 5739 5736 5733 5728 5721 5714 5709 5704 5697 5693 5690 5687 5685 5682 5679 5676 5673 5670 5668 5666 5666 5663 5659
5685 5698 5697 5698 5701 5707 5714 5714 5698 5708 5699 5696 5700 5704 5708 5712 5715 5717 5721 5725 5728 5731 5733 5733 5732 5731 5731 5729 5725 5720 5715 5708 5701 5695 5689 5684 5680 5677 5673 5671 5669 5666 5663 5660 5658 5656 5654 5654 5651
5690 5691 5693 5697 5703 5693 5709 5710 5692 5697 5693 5687 5687 5689 5692 5696 5700 5703 5707 5711 5713 5717 5719 5720 5720 5718 5718 5717 5714 5709 5704 5697 5690 5684 5678 5674 5669 5665 5661 5659 5657 5655 5651 5648 5646 5645 5642 5639 5637
5684 5679 5677 5680 5686 5696 5706 5701 5679 5686 5688 5683 5678 5676 5679 5682 5685 5688 5692 5694 5697 5699 5701 5703 5704 5702 5702 5702 5699 5695 5691 5686 5679 5672 5666 5662 5657 5652 5648 5645 5643 5640 5636 5634 5632 5630 5627 5624 5621
5683 5687 5686 5686 5691 5696 5698 5686 5671 5676 5677 5675 5671 5669 5669 5670 5672 5673 5675 5678 5680 5682 5684 5686 5686 5685 5684 5683 5680 5678 5674 5669 5663 5658 5653 5647 5642 5636 5632 5630 5627 5624 5621 5619 5617 5615 5612 5608 5606
5684 5689 5708 5699 5704 5696 5684 5672 5664 5668 5667 5666 5664 5662 5660 5660 5660 5661 5662 5664 5665 5667 5667 5668 5668 5667 5666 5665 5663 5659 5655 5651 5645 5641 5635 5629 5625 5621 5617 5614 5611 5607 5604 5602 5600 5597 5594 5592 5590
5696 5699 5694 5695 5689 5683 5677 5674 5669 5662 5661 5660 5657 5654 5651 5650 5650 5650 5651 5651 5652 5653 5652 5652 5652 5650 5648 5647 5645 5641 5637 5633 5628 5623 5617 5612 5607 5605 5601 5598 5595 5591 5588 5585 5583 5581 5577 5575 5572
5685 5688 5693 5701 5704 5694 5676 5670 5683 5672 5665 5658 5651 5647 5643 5641 5640 5640 5639 5639 5639 5639 5639 5638 5636 5634 5631 5629 5626 5623 5618 5614 5610 5605 5600 5596 5591 5588 5585 5581 5578 5575 5572 5568 5566 5564 5561 5559 5556
5687 5688 5691 5687 5687 5696 5693 5660 5675 5672 5663 5653 5643 5637 5633 5631 5630 5629 5628 5627 5627 5625 5624 5622 5620 5617 5615 5612 5609 5605 5601 5597 5592 5588 5583 5580 5576 5572 5568 5565 5562 5558 5555 5552 5550 5548 5545 5542 5539